AirNav   Air Wisconsin Up To $57,000 Bonus
 
 1250 users online  

WN40 Coupeville Airpark
Coupeville, Washington, USA

GOING TO COUPEVILLE?


FAA INFORMATION EFFECTIVE 01 DECEMBER 2022

Location

FAA Identifier: WN40
Lat/Long: 48-11-25.3510N 122-38-34.5970W
48-11.422517N 122-38.576617W
48.1903753,-122.6429436
(estimated)
Elevation: 200 ft. / 61 m (estimated)
Variation: 21E (1985)
From city: 3 miles S of COUPEVILLE, WA
Time zone: UTC -8 (UTC -7 during Daylight Saving Time)
Zip code: 98239

Airport Operations

Airport use: CLOSED INDEFINITELY
Activation date: 11/1983
Control tower: no
ARTCC: SEATTLE CENTER
FSS: SEATTLE FLIGHT SERVICE STATION
Attendance: UNATNDD
Wind indicator: yes
Segmented circle: no

Airport Communications

WX AWOS-3 at OKH (4 nm N): 132.775 (360-675-8431)
WX ASOS at NUW (10 nm N): PHONE 360-257-8813
WX AWOS-3P at 0S9 (11 nm SW): 119.025 (360-379-1199)
WX AWOS-3 at BVS (19 nm NE): 121.125 (360-757-7767)
WX AWOS-3PT at AWO (19 nm E): 135.625 (360-435-8045)

Nearby radio navigation aids

VOR radial/distance  VOR name  Freq  Var
CVVr116/4.6PENN COVE VOR/DME117.2019E
PAEr298/21.9PAINE VOR/DME110.6020E

 
NDB name  Hdg/Dist  Freq  Var  ID
SKAGIT/BAY VIEW192/18.924016EBVS -... ...- ...
FRIDAY HARBOR125/24.628417EFHR ..-. .... .-.
EDIZ HOOK067/30.633817ENOW -. --- .--

Airport Services

Runway Information

Runway 6/24

Dimensions: 2500 x 80 ft. / 762 x 24 m
Surface: turf
RUNWAY 6  RUNWAY 24
Traffic pattern: leftleft
Obstructions: 100 ft. trees, 400 ft. from runwaynone

Airport Ownership and Management from official FAA records

Ownership: Privately-owned
Owner: ERNEST H. YOUDERIAN
585W-500SO
COUPEVILLE, WA 98239
Phone 206-678-4147
Manager: ERNEST H. YOUDERIAN
585W-500SO
COUPEVILLE, WA 98239
Phone 206-678-4147

Airport Operational Statistics

Aircraft based on the field: 7
Single engine airplanes: 7
    

Additional Remarks

CTC WHIDBEY NAS ON 127.9 OR APCH CTL 118.2 OR ATIS ON 134.15. FOR ARPT TFC AREA HOT OR COLD JET TFC ON DLNG & TKOF.
AIRPARK APPROVED FOR PERSONAL USE ONLY.
FOR CD CTC SEATTLE ARTCC AT 253-351-3694.
(ARPT STATUS) ARPT CLSD INDEFLY.

Instrument Procedures

There are no published instrument procedures at WN40.

Some nearby airports with instrument procedures:

KOKH - AJ Eisenberg Airport (4 nm N)
KNUW - Whidbey Island Naval Air Station (Ault Field) Airport (10 nm N)
0S9 - Jefferson County International Airport (11 nm SW)
KBVS - Skagit Regional Airport (19 nm NE)
KAWO - Arlington Municipal Airport (19 nm E)
 
Loc | Ops | Rwys | IFR | FBO | Links
Com | Nav | Svcs | Stats | Notes
Area around WN40 (Coupeville Airpark)
 
Road maps at: MapQuest Bing Google
 
Aerial photo
No photo
 
Sectional chart

 
Airport distance calculator
Flying to Coupeville Airpark? Find the distance to fly.

From to WN40

Sunrise and sunset
Times for 09-Dec-2022
 Local
(UTC-8)
 Zulu
(UTC)
Morning civil twilight07:1415:14
Sunrise07:5015:50
Sunset16:1600:16
Evening civil twilight16:5200:52

Current date and time
Zulu (UTC)  10-Dec-2022 01:51:37
Local (UTC-8)  09-Dec-2022 17:51:37
 
METAR
KNUW 
10nm N 
100053Z 11015KT 10SM -RA BKN048 BKN070 OVC110 06/00 A2958 RMK AO2 PRESFR SLP017 P0000 T00610000 VISNO $
K0S9 
11nm SW 
100135Z AUTO 14010G20KT 3SM RA SCT013 OVC023 02/02 A2950 RMK AO2
KBVS 
19nm NE 
100135Z AUTO 08014G22KT 10SM OVC047 05/02 A2954 RMK A01
KAWO 
19nm E 
100056Z AUTO 12007KT 10SM OVC050 07/M01 A2958 RMK AO2 PRESFR SLP022 T00671006
TAF
KNUW 
10nm N 
0923/1023 16018G35KT 9999 VCSH FEW009 BKN030 BKN045 660209 661107 550009 550909 551803 QNH2955INS TEMPO 0923/1003 15008G20KT 9000 -RA BR FEW005 BKN010 OVC020 FM100300 16018G35KT 9999 VCSH FEW015 BKN030 BKN055 660209 661107 550009 550909 551803 QNH2942INS TEMPO 1006/1012 17008G20KT 8000 RA BR SCT010 BKN015 OVC025 FM101500 16018G35KT 9999 VCSH FEW015 BKN030 BKN055 660509 661406 550009 550909 551803 QNH2936INS TEMPO 1017/1023 17008G20KT 9000 -RA SCT015 BKN025 OVC035 T08/0923Z T04/1012Z COR 2341 FS3
NOTAMs
Click for the latest NOTAMs
NOTAMs are issued by the DoD/FAA and will open in a separate window not controlled by AirNav.

 

 
 

Would you like to see your business listed on this page?

 If your business provides an interesting product or service to pilots, flight crews, aircraft, or users of the Coupeville Airpark, you should consider listing it here.  To start the listing process, click on the button below
 
Add a business
 

Other Pages about Coupeville Airpark

Update a link
 
Copyright © AirNav, LLC. All rights reserved. Privacy Policy  Contact